Terminal Aerodrome Forecast
Issued by NWS Bismarck, ND

Home | Current Version | Previous Version | Graphics & Text | Print | Product List | Glossary On
Versions: 1 2 3 4 5 6 7 8 9 10 11 12 13 14 15 16 17 18 19 20 21 22 23
000
FTUS43 KBIS 280700 AAA
TAFISN
TAF AMD
KISN 280744Z 2808/2906 09005KT P6SM BKN007 OVC012
      TEMPO 2808/2810 -FZRASN
     FM281000 09007KT P6SM BKN011 OVC020
     FM281400 13007KT P6SM OVC008
     FM281900 15008KT P6SM OVC018
     FM290100 20005KT P6SM SCT011 BKN090=

USA.gov is the U.S. government's official web portal to all federal, state and local government web resources and services.